Lapse_Rate
5.7 5.8 5.8 5.4 5.2 5.3 5.0 4.5 4.6 4.5 4.2 4.2 4.1 4.2 4.3 4.4 4.4 4.6 4.7 4.8 5.0 4.9 4.8 4.8 4.8 4.7 4.8 5.0 5.2 5.7 6.0 6.3
5.8 5.6 5.1 5.0 5.2 4.8 4.6 4.6 4.6 4.5 4.3 4.2 4.4 4.8 4.9 4.8 4.8 4.9 5.0 5.0 4.9 5.0 5.0 4.9 5.0 5.2 5.5 5.8 6.1 6.2 6.3 6.4
5.3 5.0 5.0 4.8 4.5 4.8 4.8 4.7 4.8 4.6 4.8 4.8 4.9 4.8 4.6 4.6 4.8 5.0 5.0 5.0 5.0 5.1 5.2 5.3 5.6 6.0 6.1 6.2 6.4 6.6 6.7 6.7
5.0 5.1 4.8 4.7 4.9 5.0 4.9 5.0 4.9 5.1 5.0 4.7 4.6 4.6 4.9 5.2 5.2 5.2 5.2 5.2 5.2 5.3 5.5 5.8 6.2 6.3 6.4 6.5 6.5 6.4 6.4 6.3
5.1 5.0 4.9 4.9 5.0 5.0 4.9 5.1 5.2 5.1 4.9 4.7 4.8 5.2 5.4 5.2 5.1 5.1 5.1 5.2 5.5 5.9 6.5 6.6 6.7 6.7 6.6 6.4 6.3 6.2 6.1 6.1
5.1 5.0 4.9 4.9 4.9 4.9 5.1 5.2 5.1 4.8 4.8 5.0 5.4 5.4 5.0 5.1 5.1 5.1 5.3 5.8 6.3 6.7 6.8 6.9 6.8 6.6 6.4 6.3 6.2 6.1 5.9 5.9
5.1 5.0 5.0 4.9 4.8 5.1 5.3 5.0 5.0 4.9 5.2 5.4 5.3 5.1 5.2 5.1 5.3 5.6 6.2 6.8 6.9 7.0 7.0 6.8 6.6 6.5 6.4 6.2 6.0 5.9 5.8 5.7
5.0 5.0 4.9 4.8 5.0 4.9 5.0 5.1 5.0 5.2 5.2 5.2 5.1 5.1 5.1 5.3 5.6 6.1 6.8 6.9 7.1 7.1 6.8 6.6 6.5 6.4 6.2 6.0 5.9 5.7 5.7 5.6
5.1 4.9 4.8 4.8 4.2 4.5 4.9 4.9 5.0 5.2 5.4 5.1 5.0 5.1 5.3 5.6 6.1 6.6 6.7 6.9 7.0 6.9 6.7 6.5 6.4 6.2 6.0 5.9 5.7 5.6 5.6 5.4
5.0 4.8 4.7 3.9 4.2 4.6 4.7 5.0 5.3 5.4 5.1 4.9 5.1 5.4 5.7 6.0 6.5 6.6 6.7 7.0 6.9 6.8 6.6 6.5 6.3 6.1 6.0 5.7 5.5 5.3 5.2 5.2
5.0 4.8 4.4 4.2 4.6 5.1 4.9 5.3 5.5 5.1 5.0 5.1 5.4 5.7 5.9 6.3 6.6 6.7 7.0 6.9 6.8 6.8 6.7 6.5 6.3 6.0 5.8 5.5 5.2 5.1 5.2 5.2
4.9 4.5 3.8 4.4 4.7 5.0 5.3 5.5 5.2 5.1 5.1 5.4 5.8 5.8 6.2 6.5 6.6 7.1 7.0 6.8 6.8 6.8 6.7 6.4 6.1 5.9 5.6 5.3 5.2 5.2 5.2 5.2
4.9 4.2 4.7 4.4 5.1 5.4 5.7 5.4 5.3 5.1 5.3 5.7 5.8 6.0 6.4 6.7 6.8 7.1 6.9 6.8 6.8 6.8 6.5 6.3 6.0 5.7 5.3 5.0 5.0 4.9 4.9 5.1
4.8 4.5 4.6 5.0 5.4 5.8 5.6 5.5 5.3 5.2 5.5 5.8 5.9 6.2 6.6 6.7 6.9 7.0 6.8 6.8 6.8 6.7 6.4 6.2 5.9 5.4 4.9 4.9 5.0 5.0 5.0 5.0
4.7 4.8 5.3 5.4 5.8 5.9 5.8 5.5 5.3 5.3 5.6 6.0 5.9 6.4 6.8 6.7 6.9 6.9 6.8 6.8 6.8 6.7 6.3 6.1 5.6 5.2 4.9 4.9 5.1 5.2 5.2 5.0
4.9 5.3 5.7 5.8 6.1 6.0 5.8 5.5 5.4 5.4 5.8 6.0 6.1 6.6 6.8 6.8 7.0 6.8 6.8 6.8 6.8 6.7 6.3 6.0 5.6 5.3 5.0 4.9 5.1 5.1 5.2 5.1
5.5 5.7 5.7 6.1 6.2 6.1 5.8 5.5 5.4 5.6 5.9 6.0 6.2 6.9 6.9 7.0 7.0 6.8 6.8 6.8 6.8 6.6 6.1 5.8 5.8 5.7 5.5 5.2 5.1 5.3 5.2 5.2
5.8 5.9 5.9 6.3 6.3 6.2 5.8 5.5 5.6 5.6 5.9 6.0 6.5 7.1 7.1 7.1 6.9 6.8 6.8 6.8 6.8 6.4 6.0 5.9 5.9 5.8 5.8 5.6 5.4 5.3 5.3 5.3
6.1 6.0 6.1 6.4 6.5 6.3 5.9 5.7 5.7 5.7 6.0 6.1 6.8 7.3 7.2 7.1 6.9 6.9 6.8 6.7 6.6 6.2 6.1 6.0 5.9 5.9 5.9 5.8 5.6 5.5 5.1 4.8
Wind_Speed
12 13 10 11 11 11 10 8 12 11 8 7 7 7 9 10 10 11 11 10 9 9 9 9 10 10 8 9 9 8 8 8
12 11 11 12 10 11 11 11 11 8 5 5 5 4 5 8 9 9 10 11 12 11 10 11 11 7 9 9 8 9 8 8
11 10 9 10 10 10 10 9 8 8 7 5 3 5 4 6 8 10 11 12 12 12 12 11 11 7 9 9 9 8 8 8
9 8 8 8 9 7 7 7 9 8 7 7 6 4 4 6 7 8 12 12 13 12 11 11 11 9 7 8 8 10 8 8
8 8 8 7 5 4 7 6 6 6 7 6 8 7 7 7 7 10 13 13 14 13 13 12 12 11 9 8 8 8 7 9
8 8 7 4 4 5 4 4 5 5 7 8 7 8 6 7 7 10 11 14 15 16 15 14 13 12 11 10 10 9 7 7
8 6 4 5 3 3 3 4 5 6 7 8 9 9 9 10 11 10 10 8 14 17 17 16 16 14 11 10 10 10 8 8
8 6 4 4 2 3 2 3 6 6 8 9 8 8 10 12 12 10 13 10 10 11 17 16 14 15 15 13 9 8 7 7
7 5 3 2 2 2 2 6 7 7 8 9 8 9 7 8 12 10 9 10 10 18 17 17 16 16 14 11 6 6 9 9
7 5 2 2 2 3 4 6 6 6 8 8 9 8 10 11 13 14 9 15 15 17 17 16 16 16 14 11 7 10 11 10
7 4 4 3 5 4 6 6 5 6 7 8 8 8 11 13 14 12 13 16 17 16 16 16 16 16 17 14 10 11 12 10
7 5 3 5 5 5 5 5 5 6 7 8 8 8 9 13 11 12 14 17 17 14 15 14 13 14 15 11 12 13 14 13
8 6 5 4 4 5 5 4 5 5 6 7 8 7 9 11 12 13 17 15 17 15 15 12 13 14 13 13 15 15 15 14
7 5 4 4 5 4 5 5 6 6 7 8 9 8 9 11 13 14 17 18 15 16 15 13 14 15 13 14 16 15 14 14
8 6 5 5 5 4 4 5 5 6 7 9 10 9 10 11 12 14 15 18 14 13 14 13 14 13 14 17 18 17 16 13
8 7 5 6 5 4 4 5 6 7 8 9 10 10 10 11 13 14 16 16 14 15 13 14 14 13 12 18 18 17 16 13
9 7 7 5 4 4 5 6 7 8 9 10 10 10 11 13 13 14 15 15 14 14 14 15 16 11 26 28 24 16 15 14
10 8 6 6 5 4 5 6 7 8 9 10 11 11 12 13 13 14 15 15 14 14 15 16 16 16 28 29 28 15 15 14
9 7 7 5 4 4 3 5 7 8 10 11 11 12 12 13 13 15 15 13 14 13 15 16 16 13 28 30 29 18 15 16
Wind_Direction
91 83 88 84 73 69 67 55 43 43 48 51 49 49 43 30 24 19 16 15 10 352 332 331 331 328 332 333 325 328 321 329
89 88 86 81 70 70 60 54 43 41 35 21 21 20 21 25 19 14 10 1 350 339 338 333 335 334 334 333 330 329 332 340
95 83 74 70 76 72 66 58 48 41 37 24 2 8 18 8 4 5 358 351 348 341 339 335 334 330 333 336 335 327 321 337
110 88 76 84 77 72 70 61 53 43 33 32 21 2 358 1 0 353 350 345 344 337 331 328 323 318 322 322 325 328 321 321
115 110 93 79 85 83 70 60 58 48 30 34 30 23 9 359 349 346 344 343 339 336 331 326 319 315 304 308 306 306 305 316
125 104 97 104 97 69 71 71 56 38 39 29 20 18 7 351 348 340 342 339 340 338 333 326 318 313 306 302 300 299 299 296
121 108 123 94 75 73 105 72 53 36 32 25 20 11 357 353 351 345 343 336 336 336 335 328 322 320 318 312 305 296 297 298
141 131 110 80 73 108 105 56 52 36 27 20 9 2 358 352 348 343 339 340 338 338 335 333 330 328 322 320 315 313 318 312
139 127 93 94 116 122 67 52 48 34 20 12 9 8 359 354 349 344 339 339 335 335 336 335 337 336 335 335 332 328 318 311
144 132 130 159 134 95 62 57 55 30 18 11 9 7 3 356 350 349 346 340 336 337 338 338 339 338 337 330 323 325 324 318
148 149 149 138 116 92 66 69 49 26 17 11 5 3 1 357 355 358 352 344 342 340 342 340 339 340 337 328 321 326 324 326
153 140 136 122 107 83 68 56 37 23 11 3 0 0 0 360 360 355 351 347 347 345 344 341 342 343 342 339 334 330 326 320
146 138 123 131 103 84 70 46 31 14 4 358 356 353 357 360 356 351 349 349 350 345 344 344 345 345 343 340 333 328 323 321
146 139 129 115 109 87 64 42 20 8 359 355 353 347 353 354 354 349 348 349 350 350 350 349 347 347 339 337 328 328 327 322
153 143 117 111 96 77 58 32 12 2 356 353 352 347 347 349 347 347 349 350 350 352 353 351 350 345 347 338 338 332 331 330
154 136 116 112 96 77 43 23 8 358 351 352 352 348 347 349 348 349 351 354 354 354 353 353 352 353 346 343 341 336 337 328
141 128 115 114 96 63 37 25 12 354 354 353 352 351 350 355 353 353 354 356 357 358 357 354 353 353 347 348 350 338 338 332
138 123 112 111 91 55 44 17 2 5 3 357 356 354 352 357 356 359 359 358 358 359 355 356 353 358 349 352 351 343 339 336
127 120 112 104 83 63 40 13 11 10 6 359 358 358 360 1 1 4 2 1 1 355 355 356 353 357 350 356 353 349 343 342